Location: Dob?e?
(49.9411°N, 15.1496°E)
Time: 06:16:56
(UTC+00:00)

XW-2B - Visible Passes

Search period start: 26 October 2021 00:00
Search period end: 05 November 2021 00:00
Orbit: 503 x 524 km, 97.5° (Epoch: 25 October)

Date Brightness Start Highest point End Pass type
(mag) Time Alt. Az. Time Alt. Az. Time Alt. Az.
27 Oct ? 04:59:22 10° NNE 05:03:04 61° E 05:06:45 10° S visible
27 Oct ? 17:19:22 10° WSW 17:21:25 14° W 17:23:28 10° NW visible
28 Oct ? 04:44:03 10° NNE 04:47:35 40° E 04:51:07 10° S visible
28 Oct ? 17:03:02 10° SW 17:05:51 20° W 17:08:40 10° NW visible
29 Oct ? 04:28:50 10° NE 04:32:05 28° E 04:35:19 10° SSE visible
29 Oct ? 16:47:02 10° SSW 16:50:18 29° W 16:53:35 10° NW visible
30 Oct ? 04:13:47 10° NE 04:16:32 19° E 04:19:17 10° SE visible
30 Oct ? 16:31:15 10° S 16:34:47 42° W 16:38:21 10° NNW visible
31 Oct ? 03:59:01 10° ENE 04:00:57 14° E 04:02:53 10° ESE visible
31 Oct ? 16:15:38 10° S 16:19:18 64° WSW 16:23:00 10° NNW visible
01 Nov ? 05:16:10 10° NNE 05:19:55 86° WNW 05:23:39 10° SSW visible
02 Nov ? 05:00:45 10° NNE 05:04:27 63° ESE 05:08:10 10° S visible
02 Nov ? 17:20:52 10° WSW 17:22:48 14° W 17:24:45 10° WNW visible
03 Nov ? 04:45:24 10° NNE 04:48:58 42° E 04:52:32 10° S visible
03 Nov ? 17:04:28 10° SW 17:07:13 19° W 17:09:58 10° NW visible
04 Nov ? 04:30:09 10° NE 04:33:27 29° E 04:36:44 10° SSE visible
04 Nov ? 16:48:26 10° SSW 16:51:39 28° W 16:54:54 10° NW visible
